Location: Newark
(23.3970°S, 47.6010°W)
Time: 13:51:02
(UTC+00:00)

deb Explorer IX - Pass Details

Date: 22 February 2020
Orbit: 547 x 1100 km, 38.8° (Epoch: 29 March)

Event Time Altitude Azimuth Distance (km) Brightness Sun altitude
Rises 03:08:20 0° 253° (WSW) 3,813 - -56.0°
Reaches altitude 10° 03:11:37 10° 239° (WSW) 2,914 - -56.0°
Maximum altitude 03:17:17 24° 187° (S) 2,101 - -56.1°
Drops below altitude 10° 03:23:02 10° 136° (SE) 2,954 - -56.2°
Sets 03:26:24 0° 122° (ESE) 3,876 - -56.2°
